Terug naar catalogus

STARLINK-37660

ActiefCommunicatieSSO
NORAD 69132·PAYLOAD·🇺🇸 United States

Gelanceerd May 20, 2026 vanaf Vandenberg Space Force Base

Loading…

Volgende Passages (komende 24 uur)

TLE

VersSource: CelesTrak SupGP

Epoch: Sep 14, 2026, 23:30 UTC

1 69132C 26110J   26257.97965278  .00071862  00000+0  22311-2 0  2577
2 69132  97.2852  93.0950 0001667  93.1159  93.4211 15.33397771    17

Volg STARLINK-37660 in realtime met AllMySat

Download on the App Store